contact:dominique.lefevre@mio.osupytheas.fr, maurice.libes@osupytheas.fr, didier.mallarino@osupytheas.fr
Project:EMSO http://www.emso-fr.org/EMSO-France
Depth: 2436.0 m
Title:EMSO Ligure Ouest : Data MII capteur AQUADOPP
Date,Latitude,Longitude,X_East,Y_North,Z_Up,Amplitude_X,Amplitude_Y,Amplitude_Z,Batterie,SoundSpeed,Heading,Pitch,Roll,Pressure,TIS,Speed,Direction
, degrees North, degrees East, m.s-1, m.s-1,m.s-1, 1, 1, 1, Volt, m.s-1, degree, degree, degree, dbar, degree_C, m.s-1, degree
2019-09-20T00:09:04,42.805,6.029,-0.022,0.0,-0.034,102.0,105.0,100.0,13.4,1505.2,324.5,-0.8,1.8,2470.205,13.3,0.022,270.0
2019-09-20T00:12:05,42.805,6.029,-0.022,-0.018,-0.014,101.0,107.0,100.0,13.3,1505.3,324.1,-0.7,1.8,2470.123,13.31,0.028,230.7
2019-09-20T00:15:06,42.805,6.029,-0.029,0.015,-0.021,102.0,107.0,99.0,13.4,1505.3,326.8,-0.7,1.9,2470.198,13.32,0.032,297.4
2019-09-20T00:18:07,42.805,6.029,-0.027,0.01,0.005,101.0,108.0,100.0,13.4,1505.3,327.3,-0.7,1.8,2470.18,13.32,0.028,290.3
2019-09-20T00:21:08,42.805,6.029,-0.02,0.011,0.001,100.0,107.0,99.0,13.4,1505.3,326.6,-0.7,1.8,2470.134,13.33,0.022,298.8
2019-09-20T00:24:09,42.805,6.029,-0.02,-0.007,0.033,101.0,108.0,99.0,13.4,1505.3,326.6,-0.7,1.8,2470.141,13.33,0.021,250.7
2019-09-20T00:27:10,42.805,6.029,-0.015,0.002,-0.009,102.0,107.0,99.0,13.4,1505.3,326.5,-0.7,1.8,2470.119,13.33,0.015,277.6
2019-09-20T00:30:11,42.805,6.029,0.02,0.0,0.025,101.0,107.0,100.0,13.4,1505.3,325.3,-0.7,1.8,2470.081,13.33,0.02,90.0
2019-09-20T00:33:12,42.805,6.029,0.0,-0.009,0.0,103.0,107.0,100.0,13.4,1505.4,326.5,-0.7,1.8,2470.161,13.34,0.009,180.0
2019-09-20T00:36:13,42.805,6.029,-0.009,-0.014,0.008,102.0,106.0,100.0,13.4,1505.4,323.9,-0.7,1.8,2470.123,13.34,0.016,212.7
2019-09-20T00:39:14,42.805,6.029,-0.005,0.011,0.042,103.0,106.0,98.0,13.3,1505.4,327.9,-0.7,1.9,2470.069,13.34,0.012,335.6
2019-09-20T00:42:15,42.805,6.029,-0.021,-0.002,0.001,103.0,106.0,99.0,13.4,1505.4,327.2,-0.7,1.8,2470.08,13.34,0.021,264.6
2019-09-20T00:45:16,42.805,6.029,-0.03,0.0,0.013,101.0,107.0,100.0,13.4,1505.4,328.3,-0.7,1.8,2470.097,13.34,0.03,270.0
2019-09-20T00:48:17,42.805,6.029,-0.014,0.004,-0.003,102.0,107.0,99.0,13.4,1505.4,326.6,-0.7,1.8,2470.119,13.34,0.014,285.9
2019-09-20T00:51:18,42.805,6.029,-0.026,0.0,0.001,102.0,107.0,100.0,13.4,1505.4,323.0,-0.7,1.8,2470.074,13.34,0.026,270.0
2019-09-20T00:54:19,42.805,6.029,-0.015,0.015,0.015,102.0,107.0,99.0,13.4,1505.4,327.6,-0.7,1.8,2470.077,13.34,0.021,315.0
2019-09-20T00:57:20,42.805,6.029,-0.032,-0.001,-0.038,103.0,107.0,100.0,13.4,1505.4,326.2,-0.8,1.8,2470.071,13.34,0.032,268.2
2019-09-20T01:00:21,42.805,6.029,0.008,-0.002,0.037,103.0,106.0,100.0,13.3,1505.4,326.6,-0.7,1.8,2470.087,13.34,0.008,104.0
2019-09-20T01:03:22,42.805,6.029,-0.016,0.005,-0.006,102.0,108.0,98.0,13.3,1505.4,327.2,-0.7,1.8,2470.09,13.34,0.016,287.4
2019-09-20T01:06:23,42.805,6.029,-0.006,0.007,-0.005,103.0,106.0,100.0,13.3,1505.4,325.1,-0.6,1.9,2470.06,13.34,0.009,319.4
2019-09-20T01:09:24,42.805,6.029,-0.013,0.009,0.044,102.0,107.0,99.0,13.3,1505.4,323.4,-0.7,1.8,2470.073,13.34,0.015,304.7
2019-09-20T01:12:25,42.805,6.029,-0.027,-0.012,0.032,102.0,106.0,102.0,13.4,1505.4,328.6,-0.7,1.9,2470.082,13.34,0.029,246.0
2019-09-20T01:15:26,42.805,6.029,-0.026,-0.002,-0.026,101.0,107.0,100.0,13.4,1505.4,328.7,-0.7,1.9,2470.083,13.34,0.026,265.6
2019-09-20T01:18:27,42.805,6.029,-0.032,0.015,-0.007,101.0,108.0,100.0,13.4,1505.4,326.7,-0.7,1.8,2470.099,13.34,0.035,295.1
2019-09-20T01:21:28,42.805,6.029,-0.008,-0.005,0.006,102.0,106.0,100.0,13.3,1505.4,325.1,-0.7,1.8,2470.031,13.34,0.009,238.0
2019-09-20T01:24:29,42.805,6.029,-0.006,0.013,0.019,102.0,106.0,98.0,13.4,1505.4,326.3,-0.7,1.8,2470.066,13.34,0.014,335.2
2019-09-20T01:27:30,42.805,6.029,-0.02,-0.01,-0.017,102.0,106.0,99.0,13.3,1505.4,326.6,-0.7,1.9,2470.039,13.34,0.022,243.4
2019-09-20T01:30:31,42.805,6.029,-0.029,-0.001,-0.022,102.0,106.0,99.0,13.4,1505.4,325.0,-0.7,1.8,2470.046,13.34,0.029,268.0
2019-09-20T01:33:32,42.805,6.029,-0.005,-0.006,-0.019,102.0,107.0,99.0,13.4,1505.4,326.7,-0.7,1.8,2470.055,13.34,0.007,219.8
2019-09-20T01:36:33,42.805,6.029,-0.022,-0.002,-0.023,102.0,107.0,101.0,13.3,1505.4,323.9,-0.7,1.8,2470.061,13.34,0.022,264.8
2019-09-20T01:39:34,42.805,6.029,-0.011,0.016,0.004,103.0,106.0,100.0,13.4,1505.4,325.0,-0.7,1.8,2470.042,13.34,0.019,325.5
2019-09-20T01:42:35,42.805,6.029,-0.026,-0.013,-0.004,102.0,107.0,101.0,13.3,1505.4,325.7,-0.7,1.9,2470.038,13.34,0.029,243.4
2019-09-20T01:45:36,42.805,6.029,-0.001,-0.005,-0.034,102.0,107.0,99.0,13.4,1505.4,323.5,-0.7,1.9,2470.008,13.34,0.005,191.3
2019-09-20T01:48:37,42.805,6.029,-0.007,-0.003,0.022,103.0,106.0,99.0,13.4,1505.4,327.6,-0.7,1.8,2470.078,13.34,0.007,246.8
2019-09-20T01:51:38,42.805,6.029,-0.034,0.023,-0.013,101.0,107.0,100.0,13.3,1505.4,325.0,-0.7,1.9,2470.008,13.34,0.041,304.1
2019-09-20T01:54:39,42.805,6.029,-0.037,-0.008,0.008,101.0,107.0,101.0,13.3,1505.4,326.0,-0.7,1.8,2470.007,13.34,0.037,257.8
2019-09-20T01:57:40,42.805,6.029,-0.004,-0.012,0.01,103.0,107.0,99.0,13.4,1505.4,326.6,-0.7,1.8,2470.041,13.34,0.012,198.4
2019-09-20T02:00:41,42.805,6.029,-0.016,0.002,0.009,101.0,107.0,99.0,13.4,1505.4,326.5,-0.7,1.8,2470.079,13.34,0.016,277.1
2019-09-20T02:03:42,42.805,6.029,0.012,-0.015,0.001,103.0,107.0,100.0,13.4,1505.4,324.9,-0.7,1.8,2470.095,13.34,0.019,141.3
2019-09-20T02:06:43,42.805,6.029,-0.035,-0.002,-0.015,102.0,107.0,99.0,13.4,1505.4,325.9,-0.7,1.8,2470.016,13.34,0.035,266.7
2019-09-20T02:09:44,42.805,6.029,-0.016,-0.004,0.007,102.0,108.0,99.0,13.4,1505.4,327.2,-0.7,1.8,2470.046,13.34,0.016,256.0
2019-09-20T02:12:45,42.805,6.029,-0.03,0.018,0.0,103.0,108.0,98.0,13.4,1505.4,325.9,-0.7,1.8,2470.045,13.34,0.034,301.0
2019-09-20T02:15:46,42.805,6.029,-0.032,-0.007,0.0,101.0,106.0,100.0,13.3,1505.4,324.1,-0.7,1.8,2470.02,13.34,0.032,257.7
2019-09-20T02:18:47,42.805,6.029,-0.023,0.016,-0.005,102.0,107.0,99.0,13.3,1505.4,323.2,-0.7,1.8,2470.033,13.34,0.028,304.8
2019-09-20T02:21:48,42.805,6.029,-0.022,0.015,0.003,103.0,105.0,100.0,13.4,1505.4,326.1,-0.7,1.8,2470.008,13.34,0.026,304.3
2019-09-20T02:24:49,42.805,6.029,-0.017,-0.013,0.005,101.0,107.0,101.0,13.4,1505.4,326.9,-0.7,1.8,2469.986,13.34,0.021,232.6
2019-09-20T02:27:50,42.805,6.029,-0.031,-0.014,-0.016,103.0,105.0,100.0,13.4,1505.4,326.4,-0.7,1.8,2469.995,13.34,0.034,245.7
2019-09-20T02:30:51,42.805,6.029,-0.007,0.015,0.017,102.0,107.0,99.0,13.4,1505.4,326.6,-0.7,1.8,2470.024,13.34,0.016,335.0
2019-09-20T02:33:52,42.805,6.029,-0.019,-0.001,-0.002,103.0,107.0,99.0,13.3,1505.4,325.7,-0.7,1.8,2470.042,13.34,0.019,267.0
2019-09-20T02:36:53,42.805,6.029,-0.001,-0.002,-0.006,102.0,107.0,99.0,13.3,1505.4,322.9,-0.7,1.8,2470.04,13.34,0.002,206.6
2019-09-20T02:39:54,42.805,6.029,-0.009,0.0,0.011,102.0,105.0,100.0,13.4,1505.4,323.5,-0.7,1.8,2470.009,13.34,0.009,270.0
2019-09-20T02:42:55,42.805,6.029,-0.004,-0.022,-0.009,102.0,110.0,99.0,13.4,1505.4,325.0,-0.7,1.8,2470.072,13.34,0.022,190.3
2019-09-20T02:45:56,42.805,6.029,-0.003,0.001,-0.02,102.0,107.0,100.0,13.4,1505.4,324.9,-0.7,1.8,2469.98,13.34,0.003,288.4
2019-09-20T02:48:57,42.805,6.029,-0.027,-0.003,-0.001,102.0,106.0,99.0,13.3,1505.4,324.1,-0.7,1.9,2470.002,13.34,0.027,263.7
2019-09-20T02:51:58,42.805,6.029,-0.033,-0.013,-0.022,102.0,110.0,100.0,13.4,1505.4,323.7,-0.7,1.8,2469.98,13.34,0.035,248.5
2019-09-20T02:54:59,42.805,6.029,-0.009,-0.014,0.0,102.0,108.0,99.0,13.4,1505.4,325.9,-0.7,1.8,2470.054,13.34,0.016,212.7
2019-09-20T02:58:00,42.805,6.029,-0.021,0.01,-0.006,102.0,108.0,101.0,13.4,1505.4,324.3,-0.7,1.8,2470.038,13.34,0.023,295.5
2019-09-20T03:01:01,42.805,6.029,-0.028,0.007,-0.027,100.0,106.0,98.0,13.4,1505.4,328.0,-0.7,1.8,2469.947,13.34,0.028,284.0
2019-09-20T03:04:02,42.805,6.029,-0.011,0.002,-0.007,102.0,106.0,99.0,13.4,1505.4,326.7,-0.7,1.8,2470.005,13.34,0.011,280.3
2019-09-20T03:07:03,42.805,6.029,-0.025,0.002,-0.014,101.0,106.0,100.0,13.3,1505.4,325.9,-0.7,1.8,2470.004,13.34,0.025,274.6
2019-09-20T03:10:04,42.805,6.029,-0.023,0.003,0.007,104.0,106.0,99.0,13.4,1505.4,326.4,-0.7,1.8,2469.984,13.34,0.023,277.4
2019-09-20T03:13:05,42.805,6.029,-0.012,0.0,-0.02,102.0,106.0,100.0,13.4,1505.4,328.6,-0.7,1.8,2470.013,13.34,0.012,270.0
2019-09-20T03:16:06,42.805,6.029,-0.048,0.013,0.007,102.0,105.0,98.0,13.4,1505.4,326.5,-0.7,1.8,2470.005,13.34,0.049,285.2
2019-09-20T03:19:07,42.805,6.029,-0.018,-0.022,-0.014,102.0,106.0,99.0,13.4,1505.4,324.2,-0.7,1.8,2470.044,13.34,0.028,219.3
2019-09-20T03:22:08,42.805,6.029,-0.033,-0.004,0.02,102.0,106.0,100.0,13.4,1505.4,327.4,-0.7,1.8,2470.004,13.34,0.033,263.1
2019-09-20T03:25:09,42.805,6.029,-0.022,-0.006,-0.007,103.0,106.0,98.0,13.3,1505.4,324.6,-0.7,1.8,2469.983,13.35,0.022,254.7
2019-09-20T03:28:10,42.805,6.029,-0.029,-0.006,0.004,101.0,107.0,101.0,13.3,1505.4,325.3,-0.7,1.8,2470.003,13.34,0.029,258.3
2019-09-20T03:31:11,42.805,6.029,-0.03,0.001,-0.011,102.0,106.0,100.0,13.4,1505.4,326.8,-0.7,1.8,2469.969,13.34,0.03,271.9
2019-09-20T03:34:12,42.805,6.029,-0.034,0.003,-0.023,102.0,106.0,100.0,13.3,1505.4,325.1,-0.7,1.8,2469.963,13.35,0.034,275.0
2019-09-20T03:37:13,42.805,6.029,-0.041,0.005,0.008,101.0,106.0,99.0,13.3,1505.4,326.1,-0.7,1.8,2470.009,13.35,0.041,277.0
2019-09-20T03:40:14,42.805,6.029,-0.005,-0.018,-0.03,103.0,104.0,101.0,13.3,1505.4,328.1,-0.7,1.8,2469.96,13.35,0.018,195.5
2019-09-20T03:43:15,42.805,6.029,-0.022,-0.011,0.006,103.0,105.0,100.0,13.3,1505.4,324.4,-0.7,1.8,2470.02,13.35,0.024,243.4
2019-09-20T03:46:16,42.805,6.029,-0.012,-0.001,-0.029,101.0,108.0,99.0,13.3,1505.4,325.0,-0.7,1.8,2469.992,13.35,0.012,265.2
2019-09-20T03:49:17,42.805,6.029,-0.036,-0.004,0.013,102.0,106.0,100.0,13.3,1505.4,326.0,-0.7,1.8,2469.966,13.35,0.036,263.7
2019-09-20T03:52:18,42.805,6.029,-0.018,0.002,-0.011,101.0,106.0,99.0,13.3,1505.4,328.3,-0.7,1.8,2469.985,13.35,0.018,276.3
2019-09-20T03:55:19,42.805,6.029,-0.009,0.0,0.015,102.0,107.0,99.0,13.4,1505.4,327.1,-0.7,1.8,2469.984,13.35,0.009,270.0
2019-09-20T03:58:20,42.805,6.029,0.002,-0.008,0.01,102.0,107.0,99.0,13.3,1505.4,323.6,-0.7,1.9,2469.987,13.34,0.008,166.0
2019-09-20T04:01:21,42.805,6.029,-0.05,-0.013,-0.029,101.0,108.0,100.0,13.4,1505.4,327.4,-0.7,1.8,2470.004,13.34,0.051,255.4
2019-09-20T04:04:22,42.805,6.029,-0.035,0.007,-0.01,103.0,107.0,98.0,13.4,1505.4,326.1,-0.7,1.9,2469.984,13.34,0.035,281.3
2019-09-20T04:07:23,42.805,6.029,-0.014,0.0,-0.006,101.0,106.0,98.0,13.3,1505.4,326.8,-0.7,1.9,2469.992,13.34,0.014,270.0
2019-09-20T04:10:24,42.805,6.029,-0.022,0.006,-0.027,102.0,107.0,99.0,13.4,1505.4,323.3,-0.7,1.8,2469.984,13.34,0.022,285.3
2019-09-20T04:13:25,42.805,6.029,0.014,-0.002,0.019,102.0,106.0,98.0,13.3,1505.4,326.8,-0.7,1.8,2469.983,13.34,0.014,98.1
2019-09-20T04:16:26,42.805,6.029,-0.036,-0.019,-0.025,102.0,107.0,99.0,13.4,1505.4,328.1,-0.7,1.8,2469.973,13.34,0.04,242.2
2019-09-20T04:19:27,42.805,6.029,-0.055,0.013,-0.003,102.0,106.0,99.0,13.3,1505.4,326.1,-0.7,1.8,2469.984,13.34,0.056,283.3
2019-09-20T04:22:28,42.805,6.029,-0.038,0.026,-0.035,101.0,106.0,100.0,13.4,1505.4,326.9,-0.7,1.9,2469.993,13.34,0.046,304.4
2019-09-20T04:25:29,42.805,6.029,-0.006,-0.001,-0.018,104.0,107.0,99.0,13.3,1505.4,327.2,-0.7,1.8,2469.961,13.34,0.006,260.5
2019-09-20T04:28:30,42.805,6.029,-0.028,-0.01,-0.007,103.0,106.0,99.0,13.4,1505.4,323.7,-0.7,1.8,2469.95,13.34,0.029,250.4
2019-09-20T04:31:31,42.805,6.029,-0.023,0.006,0.003,102.0,108.0,101.0,13.3,1505.4,324.7,-0.7,1.8,2469.982,13.34,0.023,284.6
2019-09-20T04:34:32,42.805,6.029,-0.029,-0.013,0.014,103.0,106.0,100.0,13.3,1505.4,324.4,-0.7,1.8,2469.992,13.34,0.031,245.9
2019-09-20T04:37:33,42.805,6.029,-0.001,-0.005,0.022,102.0,107.0,99.0,13.4,1505.4,327.0,-0.7,1.8,2469.969,13.34,0.005,191.3
2019-09-20T04:40:34,42.805,6.029,-0.013,-0.009,0.013,102.0,107.0,99.0,13.4,1505.4,323.5,-0.7,1.9,2470.001,13.34,0.015,235.3
2019-09-20T04:43:35,42.805,6.029,0.005,-0.021,-0.022,102.0,106.0,102.0,13.4,1505.4,323.1,-0.7,1.9,2469.938,13.34,0.021,166.6
2019-09-20T04:46:36,42.805,6.029,0.008,-0.012,0.032,102.0,107.0,99.0,13.4,1505.4,325.0,-0.7,1.8,2469.948,13.34,0.014,146.3
2019-09-20T04:49:37,42.805,6.029,-0.032,-0.008,0.0,101.0,106.0,100.0,13.4,1505.4,323.8,-0.7,1.8,2469.988,13.34,0.032,256.0
2019-09-20T04:52:38,42.805,6.029,-0.015,0.006,0.056,103.0,107.0,99.0,13.4,1505.4,323.4,-0.7,1.8,2469.942,13.34,0.016,291.8
2019-09-20T04:55:39,42.805,6.029,-0.023,0.009,-0.012,102.0,106.0,99.0,13.4,1505.4,323.5,-0.7,1.8,2469.977,13.34,0.024,291.4
2019-09-20T04:58:40,42.805,6.029,0.012,-0.003,0.011,101.0,108.0,100.0,13.4,1505.4,323.3,-0.7,1.8,2469.954,13.34,0.012,104.0
2019-09-20T05:01:41,42.805,6.029,0.007,-0.013,0.019,104.0,107.0,98.0,13.4,1505.4,326.3,-0.7,1.8,2469.997,13.34,0.014,151.7
2019-09-20T05:04:42,42.805,6.029,-0.029,0.0,0.007,102.0,106.0,99.0,13.4,1505.4,325.2,-0.7,1.8,2469.967,13.34,0.028,270.0
2019-09-20T05:07:43,42.805,6.029,-0.013,-0.022,0.015,102.0,106.0,99.0,13.4,1505.4,326.8,-0.7,1.8,2469.966,13.34,0.025,210.6
2019-09-20T05:10:44,42.805,6.029,-0.003,0.004,0.021,102.0,108.0,99.0,13.4,1505.4,323.8,-0.7,1.8,2469.966,13.34,0.005,323.1
2019-09-20T05:13:45,42.805,6.029,-0.039,0.006,-0.027,102.0,107.0,100.0,13.3,1505.4,325.5,-0.7,1.8,2469.958,13.34,0.039,278.7
2019-09-20T05:16:46,42.805,6.029,-0.048,0.005,0.002,103.0,107.0,102.0,13.4,1505.4,328.4,-0.7,1.8,2469.969,13.34,0.048,275.9
2019-09-20T05:19:47,42.805,6.029,-0.021,0.0,0.006,104.0,108.0,99.0,13.3,1505.4,324.7,-0.7,1.8,2470.029,13.34,0.021,270.0
2019-09-20T05:22:48,42.805,6.029,-0.023,0.015,0.024,104.0,105.0,99.0,13.4,1505.4,326.7,-0.7,1.8,2469.992,13.34,0.027,303.1
2019-09-20T05:25:49,42.805,6.029,-0.014,0.015,0.02,101.0,107.0,99.0,13.4,1505.4,324.5,-0.7,1.9,2469.995,13.34,0.02,317.0
2019-09-20T05:28:50,42.805,6.029,-0.027,0.01,0.001,102.0,107.0,99.0,13.3,1505.4,326.3,-0.7,1.8,2469.953,13.34,0.028,290.3
2019-09-20T05:31:51,42.805,6.029,-0.014,-0.001,0.007,103.0,106.0,100.0,13.3,1505.4,327.7,-0.7,1.8,2469.951,13.34,0.014,265.9
2019-09-20T05:34:52,42.805,6.029,-0.018,0.006,0.015,103.0,107.0,99.0,13.3,1505.4,327.0,-0.7,1.8,2469.956,13.34,0.018,288.4
2019-09-20T05:37:53,42.805,6.029,-0.003,-0.013,0.005,102.0,107.0,99.0,13.4,1505.4,327.6,-0.8,1.9,2469.957,13.34,0.013,193.0
2019-09-20T05:40:54,42.805,6.029,0.002,-0.004,0.003,102.0,106.0,100.0,13.4,1505.4,326.9,-0.7,1.8,2469.982,13.34,0.004,153.4
2019-09-20T05:43:55,42.805,6.029,0.005,-0.006,0.015,101.0,107.0,99.0,13.4,1505.4,328.6,-0.7,1.9,2469.98,13.34,0.007,140.2
2019-09-20T05:46:56,42.805,6.029,0.001,-0.031,0.0,109.0,106.0,99.0,13.4,1505.4,327.6,-0.7,1.8,2469.99,13.34,0.031,178.2
2019-09-20T05:49:57,42.805,6.029,-0.029,-0.006,-0.026,103.0,106.0,99.0,13.4,1505.4,328.5,-0.7,1.8,2469.967,13.34,0.029,258.3
2019-09-20T05:52:58,42.805,6.029,0.011,0.005,0.038,101.0,106.0,99.0,13.4,1505.4,328.5,-0.7,1.8,2469.986,13.34,0.012,65.6
2019-09-20T05:55:59,42.805,6.029,-0.016,-0.002,0.013,103.0,107.0,99.0,13.4,1505.4,327.8,-0.7,1.8,2469.991,13.34,0.016,262.9
2019-09-20T05:59:00,42.805,6.029,-0.051,0.004,0.001,102.0,106.0,100.0,13.4,1505.4,328.6,-0.7,1.8,2469.996,13.34,0.051,274.5
2019-09-20T06:02:01,42.805,6.029,-0.01,0.007,-0.008,102.0,107.0,99.0,13.4,1505.4,325.9,-0.7,1.8,2469.984,13.34,0.012,305.0
2019-09-20T06:05:02,42.805,6.029,-0.004,-0.012,0.004,103.0,107.0,100.0,13.3,1505.4,325.1,-0.7,1.8,2469.966,13.34,0.012,198.4
2019-09-20T06:08:03,42.805,6.029,-0.016,-0.015,-0.015,101.0,106.0,100.0,13.3,1505.4,325.1,-0.7,1.8,2469.98,13.35,0.021,226.9
2019-09-20T06:11:04,42.805,6.029,-0.002,-0.017,0.015,102.0,107.0,99.0,13.4,1505.4,326.6,-0.8,1.8,2469.971,13.35,0.017,186.7
2019-09-20T06:14:05,42.805,6.029,-0.003,0.0,0.025,101.0,108.0,100.0,13.3,1505.4,323.2,-0.7,1.8,2469.998,13.35,0.003,270.0
2019-09-20T06:17:06,42.805,6.029,-0.026,-0.032,0.007,103.0,107.0,99.0,13.4,1505.4,328.6,-0.7,1.8,2469.975,13.34,0.041,219.1
2019-09-20T06:20:07,42.805,6.029,0.016,0.012,0.035,101.0,107.0,99.0,13.3,1505.4,326.6,-0.8,1.8,2469.994,13.34,0.02,53.1
2019-09-20T06:23:08,42.805,6.029,-0.002,-0.008,0.029,103.0,106.0,100.0,13.4,1505.4,327.5,-0.7,1.8,2469.985,13.34,0.008,194.0
2019-09-20T06:26:09,42.805,6.029,-0.002,0.0,0.049,102.0,107.0,100.0,13.3,1505.4,326.8,-0.7,1.8,2469.97,13.34,0.002,270.0
2019-09-20T06:29:10,42.805,6.029,-0.014,0.003,0.01,101.0,108.0,100.0,13.4,1505.4,323.1,-0.7,1.8,2469.998,13.34,0.014,282.1
2019-09-20T06:32:11,42.805,6.029,0.013,0.01,-0.001,102.0,106.0,99.0,13.4,1505.4,328.1,-0.7,1.8,2469.964,13.34,0.016,52.4
2019-09-20T06:35:12,42.805,6.029,-0.003,-0.007,0.013,104.0,106.0,100.0,13.3,1505.4,328.3,-0.7,1.8,2470.015,13.35,0.007,203.2
2019-09-20T06:38:13,42.805,6.029,-0.02,0.016,0.032,103.0,107.0,100.0,13.4,1505.4,326.1,-0.7,1.8,2469.972,13.35,0.025,308.7
2019-09-20T06:41:14,42.805,6.029,0.004,0.001,0.019,102.0,108.0,99.0,13.4,1505.4,327.6,-0.7,1.8,2470.021,13.35,0.004,76.0
2019-09-20T06:44:15,42.805,6.029,0.003,0.01,0.039,103.0,108.0,100.0,13.4,1505.4,327.6,-0.7,1.8,2470.03,13.35,0.01,16.7
2019-09-20T06:47:16,42.805,6.029,0.003,-0.001,0.002,102.0,106.0,99.0,13.4,1505.4,328.1,-0.7,1.8,2469.998,13.35,0.003,108.4
2019-09-20T06:50:17,42.805,6.029,-0.017,-0.023,-0.012,102.0,107.0,99.0,13.4,1505.4,327.7,-0.7,1.8,2469.999,13.34,0.028,216.5
2019-09-20T06:53:18,42.805,6.029,-0.008,-0.008,0.005,102.0,105.0,100.0,13.4,1505.4,327.0,-0.7,1.8,2469.965,13.34,0.011,225.0
2019-09-20T06:56:19,42.805,6.029,-0.024,0.014,0.017,102.0,105.0,98.0,13.3,1505.4,328.1,-0.7,1.9,2470.012,13.34,0.027,300.3
2019-09-20T06:59:20,42.805,6.029,0.007,0.002,0.0,102.0,106.0,101.0,13.3,1505.4,328.2,-0.7,1.8,2469.998,13.34,0.007,74.1
2019-09-20T07:02:21,42.805,6.029,-0.019,-0.006,0.021,102.0,106.0,99.0,13.4,1505.4,325.4,-0.7,1.8,2470.033,13.34,0.019,252.5
2019-09-20T07:05:22,42.805,6.029,-0.025,-0.004,-0.01,101.0,106.0,99.0,13.4,1505.4,327.9,-0.7,1.8,2470.013,13.35,0.025,260.9
2019-09-20T07:08:23,42.805,6.029,0.004,-0.015,0.007,103.0,105.0,99.0,13.4,1505.4,327.5,-0.7,1.9,2470.011,13.35,0.015,165.1
2019-09-20T07:11:24,42.805,6.029,-0.005,0.01,0.005,103.0,107.0,101.0,13.4,1505.4,324.6,-0.7,1.8,2469.986,13.34,0.011,333.4
2019-09-20T07:14:25,42.805,6.029,-0.024,-0.017,-0.013,102.0,107.0,100.0,13.3,1505.4,325.9,-0.7,1.8,2470.062,13.35,0.029,234.7
2019-09-20T07:17:26,42.805,6.029,-0.028,0.005,-0.047,102.0,108.0,100.0,13.4,1505.4,326.7,-0.7,1.8,2469.992,13.35,0.028,280.1
2019-09-20T07:20:27,42.805,6.029,-0.017,-0.002,0.008,101.0,107.0,100.0,13.4,1505.4,327.4,-0.7,1.8,2470.037,13.35,0.017,263.3
2019-09-20T07:23:28,42.805,6.029,-0.01,0.0,-0.019,103.0,107.0,99.0,13.3,1505.4,324.3,-0.7,1.9,2470.057,13.34,0.01,270.0
2019-09-20T07:26:29,42.805,6.029,-0.048,-0.031,0.018,103.0,107.0,100.0,13.4,1505.4,326.6,-0.7,1.8,2470.045,13.35,0.057,237.1
2019-09-20T07:29:30,42.805,6.029,-0.012,-0.005,0.002,101.0,107.0,99.0,13.4,1505.4,324.4,-0.7,1.9,2470.059,13.35,0.013,247.4
2019-09-20T07:32:31,42.805,6.029,-0.005,-0.003,0.013,101.0,108.0,100.0,13.3,1505.4,323.7,-0.7,1.8,2470.066,13.35,0.005,239.0
2019-09-20T07:35:32,42.805,6.029,-0.034,-0.011,-0.018,102.0,107.0,100.0,13.4,1505.4,328.6,-0.7,1.8,2470.061,13.35,0.035,252.1
2019-09-20T07:38:33,42.805,6.029,-0.009,-0.003,-0.016,101.0,107.0,99.0,13.4,1505.4,327.3,-0.7,1.8,2470.071,13.35,0.009,251.6
2019-09-20T07:41:34,42.805,6.029,-0.032,0.006,0.0,101.0,106.0,99.0,13.3,1505.4,324.6,-0.7,1.9,2470.048,13.35,0.032,280.6
2019-09-20T07:44:35,42.805,6.029,-0.05,-0.002,-0.017,101.0,108.0,99.0,13.4,1505.4,324.7,-0.7,1.8,2470.083,13.35,0.05,267.7
2019-09-20T07:47:36,42.805,6.029,-0.016,-0.014,0.007,101.0,107.0,99.0,13.4,1505.4,327.1,-0.7,1.8,2470.09,13.35,0.021,228.8
2019-09-20T07:50:37,42.805,6.029,-0.04,-0.013,-0.006,100.0,108.0,99.0,13.4,1505.4,324.2,-0.7,1.8,2470.057,13.35,0.042,252.0
2019-09-20T07:53:38,42.805,6.029,-0.043,-0.009,0.001,101.0,106.0,100.0,13.4,1505.4,323.5,-0.7,1.8,2470.062,13.35,0.043,258.2
2019-09-20T07:56:39,42.805,6.029,-0.048,-0.002,-0.038,103.0,108.0,99.0,13.4,1505.4,323.9,-0.7,1.8,2470.078,13.35,0.048,267.6
2019-09-20T07:59:40,42.805,6.029,0.0,-0.008,0.0,103.0,107.0,99.0,13.4,1505.4,326.6,-0.7,1.9,2470.083,13.35,0.008,180.0
2019-09-20T08:02:41,42.805,6.029,-0.04,0.001,-0.022,102.0,107.0,99.0,13.4,1505.4,327.2,-0.7,1.8,2470.048,13.35,0.04,271.4
2019-09-20T08:05:42,42.805,6.029,-0.025,0.006,-0.028,102.0,108.0,100.0,13.4,1505.4,327.4,-0.7,1.8,2470.06,13.35,0.025,283.5
2019-09-20T08:08:43,42.805,6.029,-0.017,-0.006,0.01,102.0,107.0,99.0,13.4,1505.4,327.9,-0.7,1.8,2470.081,13.35,0.018,250.6
2019-09-20T08:11:44,42.805,6.029,-0.02,-0.01,-0.015,102.0,107.0,100.0,13.4,1505.4,328.0,-0.7,1.8,2470.077,13.35,0.022,243.4
2019-09-20T08:14:45,42.805,6.029,-0.029,-0.007,-0.02,103.0,108.0,99.0,13.3,1505.4,326.3,-0.7,1.8,2470.069,13.35,0.029,256.4
2019-09-20T08:17:46,42.805,6.029,-0.021,0.0,-0.022,100.0,108.0,100.0,13.3,1505.4,327.4,-0.7,1.8,2470.076,13.35,0.021,270.0
2019-09-20T08:20:47,42.805,6.029,-0.028,-0.009,-0.018,101.0,106.0,100.0,13.4,1505.4,328.6,-0.7,1.9,2470.076,13.35,0.029,252.2
2019-09-20T08:23:48,42.805,6.029,-0.019,-0.015,-0.02,103.0,107.0,99.0,13.4,1505.4,327.8,-0.7,1.8,2470.116,13.35,0.024,231.7
2019-09-20T08:26:49,42.805,6.029,-0.044,-0.007,-0.041,101.0,107.0,99.0,13.3,1505.4,327.9,-0.7,1.8,2470.082,13.35,0.044,261.0
2019-09-20T08:29:50,42.805,6.029,-0.05,-0.025,-0.021,102.0,108.0,100.0,13.3,1505.4,328.0,-0.7,1.8,2470.131,13.35,0.055,243.4
2019-09-20T08:32:51,42.805,6.029,-0.028,0.0,-0.003,103.0,108.0,100.0,13.4,1505.4,328.0,-0.7,1.8,2470.106,13.35,0.028,270.0
2019-09-20T08:35:52,42.805,6.029,0.016,-0.001,0.007,104.0,109.0,99.0,13.4,1505.4,326.4,-0.7,1.8,2470.098,13.35,0.016,93.6
2019-09-20T08:38:53,42.805,6.029,-0.012,-0.006,0.008,102.0,107.0,100.0,13.4,1505.4,324.2,-0.7,1.8,2470.103,13.35,0.013,243.4
2019-09-20T08:41:54,42.805,6.029,-0.006,0.002,-0.004,101.0,108.0,99.0,13.4,1505.4,325.8,-0.7,1.8,2470.11,13.35,0.006,288.4
2019-09-20T08:44:55,42.805,6.029,-0.005,0.002,0.015,101.0,108.0,100.0,13.4,1505.4,325.1,-0.7,1.8,2470.113,13.35,0.005,291.8
2019-09-20T08:47:56,42.805,6.029,-0.015,-0.015,0.017,103.0,108.0,99.0,13.3,1505.4,324.8,-0.7,1.8,2470.109,13.35,0.021,225.0
2019-09-20T08:50:57,42.805,6.029,-0.003,0.001,0.008,103.0,107.0,100.0,13.4,1505.4,325.1,-0.8,1.8,2470.15,13.35,0.003,288.4
2019-09-20T08:53:58,42.805,6.029,-0.009,-0.017,-0.012,103.0,106.0,99.0,13.3,1505.4,325.8,-0.7,1.8,2470.116,13.35,0.019,207.9
2019-09-20T08:56:59,42.805,6.029,-0.014,0.008,-0.003,103.0,109.0,100.0,13.4,1505.4,327.1,-0.7,1.8,2470.129,13.35,0.016,299.7
2019-09-20T09:00:00,42.805,6.029,-0.032,0.012,0.032,103.0,109.0,101.0,13.4,1505.4,325.2,-0.7,1.9,2470.129,13.35,0.034,290.6
2019-09-20T09:03:01,42.805,6.029,-0.014,-0.022,0.002,102.0,107.0,99.0,13.4,1505.4,324.3,-0.7,1.8,2470.12,13.35,0.026,212.5
2019-09-20T09:06:02,42.805,6.029,-0.002,0.0,-0.014,101.0,109.0,99.0,13.4,1505.4,325.4,-0.7,1.9,2470.102,13.35,0.002,270.0
2019-09-20T09:09:03,42.805,6.029,-0.019,-0.008,-0.037,103.0,109.0,98.0,13.4,1505.4,326.5,-0.7,1.8,2470.108,13.35,0.02,247.2
2019-09-20T09:12:04,42.805,6.029,-0.015,-0.011,-0.014,102.0,108.0,100.0,13.4,1505.4,324.9,-0.7,1.7,2470.113,13.35,0.018,233.7
2019-09-20T09:15:05,42.805,6.029,-0.007,0.008,-0.013,101.0,109.0,100.0,13.3,1505.4,325.5,-0.7,1.8,2470.081,13.35,0.01,318.8
2019-09-20T09:18:06,42.805,6.029,-0.001,-0.008,0.012,103.0,107.0,99.0,13.4,1505.4,325.6,-0.7,1.8,2470.121,13.35,0.008,187.1
2019-09-20T09:21:07,42.805,6.029,-0.053,-0.005,-0.063,102.0,109.0,100.0,13.3,1505.4,323.5,-0.7,1.9,2470.168,13.35,0.053,264.6
2019-09-20T09:24:08,42.805,6.029,-0.008,-0.013,0.001,104.0,109.0,100.0,13.4,1505.4,324.4,-0.7,1.9,2470.164,13.35,0.015,211.6
2019-09-20T09:27:09,42.805,6.029,0.0,-0.021,0.026,103.0,106.0,100.0,13.4,1505.4,327.2,-0.7,1.8,2470.135,13.35,0.021,180.0
2019-09-20T09:30:10,42.805,6.029,-0.043,-0.003,0.0,103.0,110.0,100.0,13.4,1505.4,325.0,-0.7,1.9,2470.112,13.35,0.043,266.0
2019-09-20T09:33:11,42.805,6.029,-0.042,0.002,-0.018,104.0,110.0,100.0,13.4,1505.4,325.7,-0.7,1.8,2470.096,13.35,0.042,272.7
2019-09-20T09:36:12,42.805,6.029,-0.034,0.009,-0.016,103.0,109.0,99.0,13.3,1505.4,326.4,-0.7,1.8,2470.146,13.35,0.035,284.8
2019-09-20T09:39:13,42.805,6.029,-0.021,-0.003,-0.004,102.0,110.0,100.0,13.4,1505.4,325.7,-0.8,1.8,2470.161,13.35,0.021,261.9